Ardmore Downtown, OK

7:45 PM CST on November 19, 2019 (GMT -0600)
Ardmore Downtown

Weather History for K1F0 - June, 2019

Change the Weather History Date:

Thursday, June 13, 2019

  Actual Average (KADM) Record (KADM)
Temperature  
Mean Temperature 68 °F -  
Max Temperature 80 °F 85 °F 101 °F (2013)
Min Temperature 55 °F 66 °F 56 °F (2019)
Cooling Degree Days 2    
Growing Degree Days 18 (Base 50)    
Moisture  
Dew Point 53 °F    
Average Humidity 61    
Maximum Humidity 100    
Minimum Humidity 30    
Precipitation  
Precipitation 0.00 in - - ()
Sea Level Pressure  
Sea Level Pressure 30.10 in    
Wind  
Wind Speed 1 mph (East)    
Max Wind Speed 8 mph    
Max Gust Speed -    
Visibility 10 miles    
Events      
Averages and records for this station are not official NWS values.
T = Trace of Precipitation, MM = Missing Value Source: NWS Daily Summary

Daily Weather History Graph

Daily Weather History Graph

Search for Another Location

Airport or City:

Astronomy

Jun. 13, 2019 Rise Set
Actual Time 6:16 AM CDT 8:40 PM CDT
Civil Twilight 5:47 AM CDT 9:10 PM CDT
Nautical Twilight 5:11 AM CDT 9:46 PM CDT
Astronomical Twilight 4:31 AM CDT 10:25 PM CDT
Moon 5:07 PM CDT (6/13) 3:50 AM CDT (6/13)
Length of Visible Light 15h 23m
Length of Day
14h 24m
Waxing Gibbous, 85% of the Moon is Illuminated
Jun 13
Waxing Gibbous
Jun 17
Full
Jun 25
Last Quarter
Jul 2
New
Jul 9
First Quarter

Hourly Weather History & Observations

Time (CDT) Temp. Dew Point Humidity Pressure Visibility Wind Dir Wind Speed Gust Speed Precip Events Conditions
12:10 AM 62.6 °F 57.2 °F 82% 30.10 in 10.0 mi Calm Calm - N/A   Clear
12:35 AM 62.6 °F 57.2 °F 82% 30.09 in 10.0 mi Calm Calm - N/A   Clear
12:55 AM 60.8 °F 57.2 °F 88% 30.10 in 10.0 mi Calm Calm - N/A   Clear
1:15 AM 60.8 °F 57.2 °F 88% 30.09 in 10.0 mi Calm Calm - N/A   Clear
1:35 AM 59.0 °F 57.2 °F 94% 30.09 in 10.0 mi Calm Calm - N/A   Clear
1:55 AM 59.0 °F 55.4 °F 88% 30.10 in 10.0 mi Calm Calm - N/A   Clear
2:15 AM 59.0 °F 55.4 °F 88% 30.09 in 10.0 mi Calm Calm - N/A   Clear
2:55 AM 59.0 °F 55.4 °F 88% 30.10 in 10.0 mi Calm Calm - N/A   Clear
3:15 AM 59.0 °F 55.4 °F 88% 30.10 in 10.0 mi Calm Calm - N/A   Clear
3:35 AM 57.2 °F 55.4 °F 94% 30.10 in 10.0 mi Calm Calm - N/A   Clear
3:55 AM 57.2 °F 55.4 °F 94% 30.10 in 10.0 mi Calm Calm - N/A   Clear
4:15 AM 55.4 °F 53.6 °F 94% 30.10 in 10.0 mi Calm Calm - N/A   Clear
4:35 AM 55.4 °F 53.6 °F 94% 30.10 in 10.0 mi Calm Calm - N/A   Clear
4:55 AM 55.4 °F 53.6 °F 94% 30.11 in 10.0 mi Calm Calm - N/A   Clear
5:15 AM 55.4 °F 53.6 °F 94% 30.11 in 10.0 mi Calm Calm - N/A   Clear
5:35 AM 55.4 °F 53.6 °F 94% 30.12 in 10.0 mi Calm Calm - N/A   Clear
5:55 AM 55.4 °F 53.6 °F 94% 30.12 in 10.0 mi Calm Calm - N/A   Clear
6:15 AM 55.4 °F 53.6 °F 94% 30.12 in 10.0 mi Calm Calm - N/A   Clear
6:35 AM 55.4 °F 53.6 °F 94% 30.12 in 10.0 mi Calm Calm - N/A   Clear
6:55 AM 55.4 °F 55.4 °F 100% 30.13 in 10.0 mi Calm Calm - N/A   Clear
7:15 AM 59.0 °F 57.2 °F 94% 30.14 in 10.0 mi Calm Calm - N/A   Clear
7:35 AM 62.6 °F 55.4 °F 77% 30.14 in 10.0 mi Calm Calm - N/A   Clear
7:55 AM 64.4 °F 55.4 °F 73% 30.14 in 10.0 mi NNE 5.8 mph - N/A   Clear
8:15 AM 64.4 °F 55.4 °F 73% 30.15 in 10.0 mi NNE 4.6 mph - N/A   Clear
8:35 AM 66.2 °F 55.4 °F 68% 30.16 in 10.0 mi NNE 5.8 mph - N/A   Clear
8:55 AM 68.0 °F 55.4 °F 64% 30.17 in 10.0 mi ENE 5.8 mph - N/A   Clear
9:15 AM 69.8 °F 55.4 °F 60% 30.17 in 10.0 mi NE 4.6 mph - N/A   Clear
9:35 AM 71.6 °F 55.4 °F 57% 30.17 in 10.0 mi ENE 4.6 mph - N/A   Clear
9:55 AM 71.6 °F 55.4 °F 57% 30.17 in 10.0 mi ENE 3.5 mph - N/A   Clear
10:15 AM 73.4 °F 55.4 °F 53% 30.17 in 10.0 mi East 4.6 mph - N/A   Clear
10:35 AM 73.4 °F 53.6 °F 50% 30.17 in 10.0 mi ESE 4.6 mph - N/A   Clear
10:55 AM 75.2 °F 51.8 °F 44% 30.17 in 10.0 mi East 4.6 mph - N/A   Clear
11:15 AM 75.2 °F 50.0 °F 41% 30.17 in 10.0 mi NE 3.5 mph - N/A   Clear
11:35 AM 77.0 °F 51.8 °F 41% 30.17 in 10.0 mi SE 3.5 mph - N/A   Clear
11:55 AM 77.0 °F 51.8 °F 41% 30.17 in 10.0 mi Calm Calm - N/A   Clear
12:15 PM 77.0 °F 51.8 °F 41% 30.16 in 10.0 mi Calm Calm - N/A   Clear
12:35 PM 77.0 °F 50.0 °F 39% 30.16 in 10.0 mi Calm Calm - N/A   Clear
12:55 PM 78.8 °F 50.0 °F 36% 30.16 in 10.0 mi East 3.5 mph - N/A   Clear
1:35 PM 78.8 °F 50.0 °F 36% 30.14 in 10.0 mi East 4.6 mph - N/A   Clear
1:55 PM 78.8 °F 50.0 °F 36% 30.13 in 10.0 mi Calm Calm - N/A   Clear
2:15 PM 78.8 °F 50.0 °F 36% 30.12 in 10.0 mi ENE 5.8 mph - N/A   Clear
2:35 PM 78.8 °F 48.2 °F 34% 30.12 in 10.0 mi North 4.6 mph - N/A   Clear
2:55 PM 78.8 °F 48.2 °F 34% 30.11 in 10.0 mi West 3.5 mph - N/A   Clear
3:15 PM 80.6 °F 48.2 °F 32% 30.10 in 10.0 mi NE 8.1 mph - N/A   Clear
3:30 PM 80.6 °F 50.0 °F 34% 30.10 in 10.0 mi East 3.5 mph - N/A   Clear
3:55 PM 80.6 °F 48.2 °F 32% 30.10 in 10.0 mi SE 3.5 mph - N/A   Clear
4:15 PM 78.8 °F 46.4 °F 32% 30.09 in 10.0 mi Calm Calm - N/A   Clear
4:35 PM 80.6 °F 48.2 °F 32% 30.08 in 10.0 mi NE 3.5 mph - N/A   Clear
4:55 PM 80.6 °F 46.4 °F 30% 30.08 in 10.0 mi Calm Calm - N/A   Clear
5:15 PM 80.6 °F 50.0 °F 34% 30.07 in 10.0 mi SE 4.6 mph - N/A   Clear
5:35 PM 80.6 °F 48.2 °F 32% 30.07 in 10.0 mi Calm Calm - N/A   Clear
5:55 PM 80.6 °F 50.0 °F 34% 30.06 in 10.0 mi South 3.5 mph - N/A   Clear
6:15 PM 80.6 °F 50.0 °F 34% 30.05 in 10.0 mi SE 5.8 mph - N/A   Clear
6:35 PM 78.8 °F 51.8 °F 39% 30.05 in 10.0 mi SE 4.6 mph - N/A   Clear
6:55 PM 78.8 °F 53.6 °F 42% 30.05 in 10.0 mi SE 8.1 mph - N/A   Clear
7:15 PM 78.8 °F 51.8 °F 39% 30.05 in 10.0 mi SE 5.8 mph - N/A   Clear
7:35 PM 77.0 °F 53.6 °F 44% 30.04 in 10.0 mi SE 5.8 mph - N/A   Clear
7:55 PM 75.2 °F 53.6 °F 47% 30.04 in 10.0 mi SE 5.8 mph - N/A   Clear
8:15 PM 73.4 °F 53.6 °F 50% 30.04 in 10.0 mi ESE 4.6 mph - N/A   Clear
8:35 PM 71.6 °F 53.6 °F 53% 30.03 in 10.0 mi ESE 3.5 mph - N/A   Clear
8:55 PM 71.6 °F 53.6 °F 53% 30.03 in 10.0 mi Calm Calm - N/A   Clear
9:15 PM 69.8 °F 53.6 °F 56% 30.03 in 10.0 mi Calm Calm - N/A   Clear
9:35 PM 69.8 °F 53.6 °F 56% 30.03 in 10.0 mi Calm Calm - N/A   Clear
10:15 PM 68.0 °F 53.6 °F 60% 30.04 in 10.0 mi Calm Calm - N/A   Clear
10:35 PM 68.0 °F 53.6 °F 60% 30.05 in 10.0 mi Calm Calm - N/A   Clear
10:55 PM 64.4 °F 55.4 °F 73% 30.05 in 10.0 mi Calm Calm - N/A   Clear
11:15 PM 64.4 °F 53.6 °F 68% 30.06 in 10.0 mi Calm Calm - N/A   Clear
11:35 PM 62.6 °F 55.4 °F 77% 30.06 in 10.0 mi Calm Calm - N/A   Clear
11:55 PM 64.4 °F 55.4 °F 73% 30.05 in 10.0 mi Calm Calm - N/A   Clear